sat.trackr.live / text

‹ back to catalog

STARLINK-35734

NORAD 66225 · 2025-244V

PAYLOAD ACTIVE UNKNOWN

§ Identity

Operator
Country
US
Launch date
2025-10-28
Launch site
AFWTR
Launch vehicle
Mass (kg)
RCS (m²)

Purposes: comms

External: N2YO · Heavens-Above · Gunter

§ Orbital elements

Epoch: 2026-05-24T22:50:05.828640Z

Period
94.10 min
Inclination
53.1560°
Eccentricity
0.0001479
Mean motion
15.30220760 rev/d
Perigee alt
474.1 km
Apogee alt
476.2 km
Semi-major
6,853.3 km
B*
5.9890e-4
RAAN
235.8153°
Arg perigee
104.8400°
Mean anomaly
255.2765°
Rev number
3,333

§ Raw data

STARLINK-357341 66225U 25244V   26144.95145635  .00017431  00000+0  59890-3 0  99922 66225  53.1560 235.8153 0001479 104.8400 255.2765 15.30220760 33338

JSON: /api/v1/satellites/66225 · /tle

For live sub-satellite position, see the globe view (requires WebGL).

§ Visibility from observer

Set your observer location to see the next 7 days of passes ≥ 10°. The values pass through the URL so the page stays shareable.

No JS? Fill the form by hand. The geolocation button needs JavaScript.